Date String (YYYY-MM-DD hh:mm:ss) UTC,Instrument flags,Ambient pressure (hPa),Sample flow (lpm),Bypass flow (lpm),Sample temperature (°C),Ambient temperature (°C),ASC tube jacket temperature (°C),LED temperature (°C),Box temperature (°C),Sample RH (%),Span deviation,Mass concentration (μg/m³),Mass concentration (μg/m³),Mass concentration (μg/m³)
DateTimeUTC,F1_M11,P_M11,Q1_M11,Q2_M11,T1_M11,T2_M11,T3_M11,T4_M11,T5_M11,U1_M11,ZSPAN_M11,X0_M11,X2_M11,X1_M11
2022-03-08 04:00:00,,0826.1,5.00,0.00,22.0,21.5,00.0,31.0,23.7,08.8,-000.3,0011.08,0006.58,0006.26
2022-03-08 04:01:00,,0826.2,5.00,0.00,22.0,21.4,00.0,31.0,23.7,08.9,-000.6,0011.10,0006.55,0006.22
2022-03-08 04:02:00,,0826.1,5.00,0.00,22.0,21.3,00.0,31.0,23.6,08.8,-000.5,0010.83,0006.51,0006.19
2022-03-08 04:03:00,,0826.1,5.00,0.00,21.9,21.3,00.0,31.0,23.6,08.8,0000.1,0010.75,0006.47,0006.18
2022-03-08 04:04:00,,0826.2,5.00,0.00,21.9,21.2,00.0,31.0,23.6,08.8,0000.3,0010.62,0006.46,0006.16
2022-03-08 04:05:00,,0826.2,5.00,0.00,21.9,21.2,00.0,31.0,23.5,08.8,0000.6,0010.71,0006.49,0006.18
2022-03-08 04:06:00,,0826.2,5.00,0.00,21.9,21.1,00.0,31.0,23.5,08.8,0000.5,0010.89,0006.56,0006.21
2022-03-08 04:07:00,,0826.0,5.01,0.00,21.8,21.1,00.0,31.0,23.5,08.9,0000.6,0010.97,0006.57,0006.19
2022-03-08 04:08:00,,0826.0,5.01,0.00,21.8,21.0,00.0,30.9,23.4,09.0,0000.3,0011.13,0006.55,0006.16
2022-03-08 04:09:00,,0826.0,4.99,0.00,21.8,21.4,00.0,31.0,23.5,08.9,0000.0,0011.32,0006.58,0006.16
2022-03-08 04:10:00,,0826.1,5.01,0.00,22.0,22.2,00.0,31.0,23.8,08.8,-000.0,0011.13,0006.59,0006.19
2022-03-08 04:11:00,,0826.0,5.00,0.00,22.1,22.8,00.0,31.0,24.1,08.7,0000.3,0010.11,0006.61,0006.21
2022-03-08 04:12:00,,0826.0,4.99,0.00,22.2,22.7,00.0,31.1,24.1,08.6,0000.5,0009.72,0006.68,0006.26
2022-03-08 04:13:00,,0826.0,5.01,0.00,22.2,22.5,00.0,31.1,24.1,08.6,0000.7,0009.77,0006.73,0006.29
2022-03-08 04:14:00,,0826.0,4.98,0.00,22.2,22.2,00.0,31.1,24.0,08.5,0000.8,0009.79,0006.76,0006.31
2022-03-08 04:15:00,,0826.0,5.00,0.00,22.2,22.0,00.0,31.1,23.9,08.5,0000.6,0010.03,0006.79,0006.33
2022-03-08 04:16:00,,0826.0,5.00,0.00,22.1,21.8,00.0,31.1,23.8,08.6,0000.4,0010.14,0006.85,0006.35
2022-03-08 04:17:00,,0826.0,5.00,0.00,22.1,21.7,00.0,31.1,23.8,08.7,0001.0,0010.03,0006.80,0006.32
2022-03-08 04:18:00,,0826.0,5.00,0.00,22.1,21.6,00.0,31.1,23.7,08.8,0001.2,0010.04,0006.81,0006.34
2022-03-08 04:19:00,,0826.1,5.01,0.00,22.0,21.5,00.0,31.1,23.7,08.9,0001.1,0009.99,0006.90,0006.44
2022-03-08 04:20:00,,0826.1,5.01,0.00,22.0,21.4,00.0,31.1,23.6,08.8,0001.5,0009.94,0006.96,0006.48
2022-03-08 04:21:00,,0826.0,5.00,0.00,22.0,21.3,00.0,31.1,23.6,08.7,0001.7,0010.12,0007.02,0006.53
2022-03-08 04:22:00,,0826.0,5.00,0.00,21.9,21.2,00.0,31.0,23.6,08.6,0001.4,0010.20,0007.04,0006.57
2022-03-08 04:23:00,,0826.0,5.00,0.00,21.9,21.1,00.0,31.0,23.6,08.6,0001.1,0010.37,0007.13,0006.65
2022-03-08 04:24:00,,0826.0,4.99,0.00,21.9,21.1,00.0,31.0,23.5,08.6,0001.2,0010.44,0007.18,0006.71
2022-03-08 04:25:00,,0826.0,5.02,0.00,21.9,21.2,00.0,31.0,23.5,08.8,0000.9,0010.68,0007.22,0006.74
2022-03-08 04:26:00,,0826.0,4.98,0.00,21.9,21.8,00.0,31.0,23.7,08.9,0000.6,0011.13,0007.21,0006.74
2022-03-08 04:27:00,,0826.0,5.00,0.00,22.1,22.6,00.0,31.1,24.0,08.8,0000.9,0011.22,0007.16,0006.74
2022-03-08 04:28:00,,0826.0,5.01,0.00,22.2,22.9,00.0,31.1,24.2,08.6,0000.4,0011.32,0007.21,0006.78
2022-03-08 04:29:00,,0825.9,4.99,0.00,22.3,22.7,00.0,31.1,24.2,08.4,-000.1,0011.36,0007.27,0006.83
2022-03-08 04:30:00,,0825.9,4.99,0.00,22.3,22.4,00.0,31.1,24.1,08.4,0000.1,0011.42,0007.28,0006.82
2022-03-08 04:31:00,,0825.9,5.00,0.00,22.2,22.2,00.0,31.1,24.0,08.4,0000.0,0011.48,0007.28,0006.84
2022-03-08 04:32:00,,0825.9,5.00,0.00,22.2,22.0,00.0,31.1,24.0,08.5,-000.0,0011.67,0007.24,0006.82
2022-03-08 04:33:00,,0825.9,5.00,0.00,22.2,21.9,00.0,31.1,23.9,08.6,0000.2,0011.60,0007.23,0006.79
2022-03-08 04:34:00,,0825.9,5.01,0.00,22.2,21.7,00.0,31.1,23.9,08.6,0000.2,0011.34,0007.14,0006.71
2022-03-08 04:35:00,,0825.8,5.01,0.00,22.1,21.6,00.0,31.1,23.8,08.7,0000.4,0011.20,0007.04,0006.62
2022-03-08 04:36:00,,0825.7,5.00,0.00,22.1,21.5,00.0,31.1,23.8,08.8,0000.5,0011.07,0006.97,0006.56
2022-03-08 04:37:00,,0825.8,4.99,0.00,22.1,21.4,00.0,31.1,23.7,08.9,0001.0,0010.22,0006.89,0006.50
2022-03-08 04:38:00,,0825.7,4.99,0.00,22.0,21.4,00.0,31.1,23.7,08.8,0001.2,0009.96,0006.85,0006.47
2022-03-08 04:39:00,,0825.7,5.01,0.00,22.0,21.3,00.0,31.1,23.6,08.7,0001.5,0009.74,0006.80,0006.44
2022-03-08 04:40:00,,0825.7,5.00,0.00,21.9,21.2,00.0,31.1,23.6,08.7,0001.7,0009.63,0006.75,0006.41
2022-03-08 04:41:00,,0825.6,4.99,0.00,21.9,21.1,00.0,31.1,23.5,08.7,0001.7,0009.52,0006.71,0006.40
2022-03-08 04:42:00,,0825.6,5.00,0.00,21.9,21.4,00.0,31.1,23.6,08.6,0001.6,0009.45,0006.72,0006.41
2022-03-08 04:43:00,,0825.6,5.01,0.00,22.1,22.1,00.0,31.1,23.9,08.5,0001.9,0009.22,0006.76,0006.43
2022-03-08 04:44:00,,0825.6,5.00,0.00,22.2,22.8,00.0,31.1,24.1,08.5,0001.7,0009.23,0006.78,0006.45
2022-03-08 04:45:00,,0825.7,4.99,0.00,22.3,22.7,00.0,31.2,24.2,08.5,0001.9,0009.34,0006.82,0006.47
2022-03-08 04:46:00,,0825.7,5.00,0.00,22.3,22.5,00.0,31.2,24.1,08.5,0001.6,0009.43,0006.85,0006.50
2022-03-08 04:47:00,,0825.6,4.99,0.00,22.3,22.2,00.0,31.2,24.0,08.4,0001.1,0009.67,0006.90,0006.56
2022-03-08 04:48:00,,0825.7,5.00,0.00,22.2,22.0,00.0,31.2,24.0,08.4,0001.1,0009.88,0007.03,0006.65
2022-03-08 04:49:00,,0825.7,5.01,0.00,22.2,21.9,00.0,31.2,23.9,08.5,0000.8,0009.93,0007.08,0006.68
2022-03-08 04:50:00,,0825.6,5.00,0.00,22.2,21.8,00.0,31.2,23.9,08.5,0000.7,0009.97,0007.11,0006.69
2022-03-08 04:51:00,,0825.6,4.99,0.00,22.2,21.7,00.0,31.2,23.9,08.6,0000.2,0009.99,0007.11,0006.68
2022-03-08 04:52:00,,0825.7,5.00,0.00,22.1,21.6,00.0,31.2,23.8,08.6,0000.1,0009.96,0007.09,0006.66
2022-03-08 04:53:00,,0825.7,5.01,0.00,22.1,21.5,00.0,31.2,23.8,08.5,0000.3,0009.99,0007.09,0006.65
2022-03-08 04:54:00,,0825.6,4.99,0.00,22.1,21.4,00.0,31.2,23.8,08.5,-000.0,0010.01,0007.10,0006.67
2022-03-08 04:55:00,,0825.6,4.99,0.00,22.1,21.4,00.0,31.1,23.8,08.5,0000.2,0010.21,0007.10,0006.67
2022-03-08 04:56:00,,0825.6,5.01,0.00,22.0,21.3,00.0,31.1,23.7,08.6,0000.3,0010.12,0007.08,0006.66
2022-03-08 04:57:00,,0825.6,4.99,0.00,22.0,21.3,00.0,31.1,23.7,08.5,0000.3,0010.17,0007.11,0006.66
2022-03-08 04:58:00,,0825.5,5.00,0.00,22.0,21.3,00.0,31.1,23.7,08.5,0000.6,0009.94,0007.10,0006.66
2022-03-08 04:59:00,,0825.5,5.00,0.00,22.0,21.3,00.0,31.1,23.7,08.6,0000.7,0009.84,0007.05,0006.62
